TimeEDT,TemperatureF,Dew PointF,Humidity,Sea Level PressureIn,VisibilityMPH,Wind Direction,Wind SpeedMPH,Gust SpeedMPH,PrecipitationIn,Events,Conditions,WindDirDegrees,DateUTC
12:53 AM,46.0,36.0,68,30.35,10.0,Calm,Calm,-,N/A,,Clear,0,2013-05-25 04:53:00
1:53 AM,42.1,36.0,79,30.35,10.0,Calm,Calm,-,N/A,,Clear,0,2013-05-25 05:53:00
2:53 AM,41.0,35.1,79,30.35,10.0,Calm,Calm,-,N/A,,Clear,0,2013-05-25 06:53:00
3:53 AM,41.0,36.0,82,30.36,10.0,Calm,Calm,-,N/A,,Clear,0,2013-05-25 07:53:00
4:53 AM,39.0,35.1,86,30.35,10.0,Calm,Calm,-,N/A,,Clear,0,2013-05-25 08:53:00
5:53 AM,39.0,35.1,86,30.35,10.0,Calm,Calm,-,N/A,,Clear,0,2013-05-25 09:53:00
6:53 AM,39.9,37.0,89,30.35,9.0,Calm,Calm,-,N/A,,Clear,0,2013-05-25 10:53:00
7:53 AM,45.0,39.9,82,30.38,10.0,Calm,Calm,-,N/A,,Clear,0,2013-05-25 11:53:00
8:53 AM,52.0,39.9,63,30.39,10.0,Variable,3.5,-,N/A,,Clear,0,2013-05-25 12:53:00
9:53 AM,57.0,37.9,49,30.39,10.0,SW,5.8,-,N/A,,Clear,220,2013-05-25 13:53:00
10:53 AM,60.1,39.0,46,30.39,10.0,Calm,Calm,-,N/A,,Clear,0,2013-05-25 14:53:00
11:53 AM,61.0,39.0,44,30.38,10.0,Variable,5.8,-,N/A,,Clear,0,2013-05-25 15:53:00
12:53 PM,64.9,39.9,40,30.37,10.0,NNE,8.1,-,N/A,,Clear,20,2013-05-25 16:53:00
1:53 PM,64.9,39.9,40,30.35,10.0,Calm,Calm,-,N/A,,Partly Cloudy,0,2013-05-25 17:53:00
2:53 PM,66.0,39.0,37,30.32,10.0,Calm,Calm,-,N/A,,Clear,0,2013-05-25 18:53:00
3:53 PM,66.0,37.0,34,30.32,10.0,NNW,6.9,-,N/A,,Clear,340,2013-05-25 19:53:00
4:53 PM,68.0,39.0,35,30.30,10.0,Variable,5.8,-,N/A,,Scattered Clouds,0,2013-05-25 20:53:00
5:53 PM,66.9,39.0,36,30.28,10.0,ESE,4.6,-,N/A,,Scattered Clouds,110,2013-05-25 21:53:00
6:53 PM,66.9,37.9,34,30.27,10.0,NNE,4.6,-,N/A,,Partly Cloudy,20,2013-05-25 22:53:00
7:53 PM,64.9,36.0,34,30.26,10.0,NE,5.8,-,N/A,,Clear,40,2013-05-25 23:53:00
8:53 PM,62.1,36.0,38,30.27,10.0,NE,3.5,-,N/A,,Clear,50,2013-05-26 00:53:00
9:53 PM,57.9,35.1,42,30.27,10.0,East,3.5,-,N/A,,Clear,80,2013-05-26 01:53:00
10:53 PM,54.0,36.0,51,30.29,10.0,Calm,Calm,-,N/A,,Clear,0,2013-05-26 02:53:00
11:53 PM,51.1,36.0,56,30.30,10.0,Calm,Calm,-,N/A,,Clear,0,2013-05-26 03:53:00